EW8626 Weather Reports


Display with metric or nautical units.
time (UTC)temp
F
wind
direction
speed
MPH
gust
MPH
rain 1hr
in
rain 24hr
in
rain mn
in
humidity
%
barometer
mb
20260902190013 94 201 0.0 0.0 0.00 0.00 0.00 56 1011.8
20260902184512 93 185 0.0 5.0 0.00 0.00 0.00 58 1011.8
20260902183010 93 156 1.0 4.0 0.00 0.00 0.00 56 1011.8
20260902181509 93 170 0.0 1.0 0.00 0.00 0.00 57 1011.9
20260902180007 92 175 0.0 5.0 0.00 0.00 0.00 59 1012.2
20260902174503 91 140 0.0 1.0 0.00 0.00 0.00 62 1012.2
20260902173002 91 281 0.0 5.0 0.00 0.00 0.00 61 1012.5
20260902171603 90 237 0.0 7.0 0.00 0.00 0.00 65 1012.5
20260902170057 90 283 0.0 7.0 0.00 0.00 0.00 62 1012.7
20260902164557 89 317 0.0 4.0 0.00 0.00 0.00 65 1012.7
20260902163052 89 257 0.0 0.0 0.00 0.00 0.00 64 1012.9
20260902161553 88 266 0.0 0.0 0.00 0.00 0.00 65 1012.8
20260902154544 87 262 1.0 4.0 0.00 0.00 0.00 70 1012.9
20260902153045 86 184 0.0 2.0 0.00 0.00 0.00 69 1013.0
20260902151546 86 287 0.0 0.0 0.00 0.00 0.00 71 1013.0
20260902150036 85 303 0.0 0.0 0.00 0.00 0.00 74 1013.0
20260902144534 84 302 0.0 1.0 0.00 0.00 0.00 73 1013.1
20260902143031 83 272 0.0 0.0 0.00 0.00 0.00 75 1013.0
20260902141535 82 262 0.0 0.0 0.00 0.00 0.00 76 1012.9
20260902140023 81 233 1.0 6.0 0.00 0.00 0.00 78 1013.0
20260902134529 81 241 0.0 0.0 0.00 0.00 0.00 80 1013.0
20260902133017 80 247 0.0 0.0 0.00 0.00 0.00 80 1013.0
20260902131514 79 257 0.0 0.0 0.00 0.00 0.00 82 1013.1
20260902130012 78 257 0.0 0.0 0.00 0.00 0.00 83 1013.1
20260902124514 77 257 0.0 0.0 0.00 0.00 0.00 83 1013.0
20260902123109 77 262 0.0 0.0 0.00 0.00 0.00 84 1012.9
20260902121509 76 220 0.0 0.0 0.00 0.00 0.00 84 1012.8
20260902120006 76 217 0.0 0.0 0.00 0.00 0.00 84 1012.7
20260902114510 75 203 0.0 0.0 0.00 0.00 0.00 84 1012.6
20260902113004 75 199 0.0 0.0 0.00 0.00 0.00 85 1012.4
20260902111503 75 199 0.0 0.0 0.00 0.00 0.00 85 1012.3
20260902110008 75 197 0.0 0.0 0.00 0.00 0.00 84 1012.3
20260902104505 75 196 0.0 0.0 0.00 0.00 0.00 84 1012.1
20260902103001 75 196 0.0 0.0 0.00 0.00 0.00 84 1012.2
20260902101605 75 196 0.0 0.0 0.00 0.00 0.00 84 1012.2
20260902100128 75 196 0.0 0.0 0.00 0.00 0.00 83 1012.2
20260902094558 75 197 0.0 0.0 0.00 0.00 0.00 83 1012.0
20260902093117 76 195 0.0 0.0 0.00 0.00 0.00 83 1012.0
20260902091608 76 195 0.0 0.0 0.00 0.00 0.00 82 1012.0
20260902084603 76 196 0.0 0.0 0.00 0.00 0.00 82 1011.8
20260902083104 76 196 0.0 0.0 0.00 0.00 0.00 82 1011.6
20260902081610 76 196 0.0 0.0 0.00 0.00 0.00 83 1011.4
20260902080057 76 196 0.0 0.0 0.00 0.00 0.00 83 1011.4
20260902074550 76 196 0.0 0.0 0.00 0.00 0.00 83 1011.3
20260902073050 76 197 0.0 0.0 0.00 0.00 0.00 83 1011.3
20260902071559 76 196 0.0 0.0 0.00 0.00 0.00 84 1011.4
20260902070047 75 195 0.0 0.0 0.00 0.00 0.00 85 1011.4
20260902064549 75 199 0.0 0.0 0.00 0.00 0.00 87 1011.4
20260902063109 74 199 0.0 0.0 0.00 0.00 0.00 88 1011.6
20260902061552 74 199 0.0 0.0 0.00 0.00 0.00 87 1011.4
20260902060059 75 199 0.0 0.0 0.00 0.00 0.00 86 1011.5
20260902054543 76 199 0.0 0.0 0.00 0.00 0.00 84 1011.5
20260902053041 77 199 0.0 0.0 0.00 0.00 0.00 82 1011.5
20260902051535 77 199 0.0 0.0 0.00 0.00 0.00 82 1011.5
20260902050034 77 199 0.0 0.0 0.00 0.00 0.00 81 1011.6
20260902044541 77 199 0.0 0.0 0.00 0.00 0.00 82 1011.5
20260902043032 77 199 0.0 0.0 0.00 0.00 0.00 81 1011.5
20260902041537 77 199 0.0 0.0 0.00 0.00 0.00 82 1011.5
20260902040031 77 199 0.0 0.0 0.00 0.00 0.00 83 1011.6
20260902034528 77 199 0.0 0.0 0.00 0.00 0.00 84 1011.5
20260902033027 77 199 0.0 0.0 0.00 0.00 0.00 85 1011.5
20260902031536 77 199 0.0 0.0 0.00 0.00 0.00 87 1011.5
20260902030025 77 199 0.0 0.0 0.00 0.00 0.00 88 1011.5
20260902024524 78 199 0.0 0.0 0.00 0.00 0.00 87 1011.5
20260902023024 78 199 0.0 0.0 0.00 0.00 0.00 86 1011.5
20260902021531 78 199 0.0 0.0 0.00 0.00 0.00 85 1011.5
20260902020025 78 199 0.0 0.0 0.00 0.00 0.00 85 1011.5
20260902014542 79 199 0.0 0.0 0.00 0.00 0.00 85 1011.5
20260902011520 80 199 0.0 0.0 0.00 0.00 0.00 82 1011.1
20260902010023 81 199 0.0 0.0 0.00 0.00 0.00 82 1011.0
20260902004524 83 199 0.0 0.0 0.00 0.00 0.00 80 1010.9
20260902003017 85 199 0.0 0.0 0.00 0.00 0.00 77 1010.8
20260902001516 87 199 0.0 0.0 0.00 0.00 0.00 74 1011.0
20260902000020 88 199 0.0 0.0 0.00 0.00 0.00 72 1011.1
20260901234532 91 199 0.0 0.0 0.00 0.00 0.00 67 1011.2
20260901233012 92 199 0.0 0.0 0.00 0.00 0.00 66 1011.3
20260901231508 92 199 0.0 0.0 0.00 0.00 0.00 65 1011.3
20260901230011 92 199 0.0 0.0 0.00 0.00 0.00 59 1011.3
20260901224505 92 199 0.0 0.0 0.00 0.00 0.00 58 1011.2
20260901223009 93 212 0.0 0.0 0.00 0.00 0.00 56 1011.2
20260901221512 93 144 0.0 0.0 0.00 0.00 0.00 56 1011.2
20260901220012 93 144 0.0 0.0 0.00 0.00 0.00 53 1011.2
20260901214503 94 174 0.0 0.0 0.00 0.00 0.00 53 1011.1
20260901213002 94 186 0.0 0.0 0.00 0.00 0.00 53 1011.1
20260901211601 94 123 0.0 2.0 0.00 0.00 0.00 53 1011.1
20260901210059 93 155 0.0 4.0 0.00 0.00 0.00 53 1011.2
20260901204559 93 137 0.0 8.0 0.00 0.00 0.00 55 1011.4
20260901203103 92 172 1.0 6.0 0.00 0.00 0.00 53 1011.5
20260901201557 93 154 0.0 5.0 0.00 0.00 0.00 55 1011.5
20260901200055 93 150 0.0 6.0 0.00 0.00 0.00 56 1011.5
20260901194553 93 158 0.0 3.0 0.00 0.00 0.00 57 1011.6
20260901193105 93 183 0.0 5.0 0.00 0.00 0.00 56 1011.8
20260901191552 93 183 0.0 4.0 0.00 0.00 0.00 56 1012.0